Location: *
(47.6569°N, 7.4256°E)
Time: 16:38:48
(UTC+00:00)

Gbstr 26 Del rocket - Pass Details

Date: 14 December 2019
Orbit: 493 x 1263 km, 51.8° (Epoch: 27 January)

Event Time Altitude Azimuth Distance (km) Brightness Sun altitude
Rises 18:40:32 0° 232° (SW) 3,948 7.9 -29.5°
Reaches altitude 10° 18:43:29 10° 230° (SW) 2,888 7.1 -30.0°
Enters shadow 18:49:16 58° 198° (SSW) 1,090 4.2 -30.9°
